Weather History for Mobridge, SD

Change the Weather History Date:

Wednesday, November 16, 2011

  Actual Average Record
Temperature  
Mean Temperature 22 °F 32 °F  
Max Temperature 33 °F 42 °F 69 °F (1953)
Min Temperature 10 °F 21 °F -10 °F (1959)
Degree Days  
Heating Degree Days 43 33  
Month to date heating degree days 428 464  
Since 1 July heating degree days 1054 1238  
Cooling Degree Days 0 0  
Month to date cooling degree days 0 0  
Year to date cooling degree days 684 644  
Moisture  
Dew Point 10 °F    
Average Humidity 61    
Maximum Humidity 88    
Minimum Humidity 33    
Precipitation  
Precipitation 0.00 in 0.01 in 0.39 in (1971)
Month to date precipitation 0.01 0.39  
Year to date precipitation 18.85 17.34  
Snow  
Snow 0.00 in - - ()
Month to date snowfall 0.0  
Since 1 July snowfall 0.0  
Snow Depth 0.00 in    
Sea Level Pressure  
Sea Level Pressure 30.19 in    
Wind  
Wind Speed 11 mph (NW)    
Max Wind Speed 26 mph    
Max Gust Speed 36 mph    
Visibility 10 miles    
Events      
T = Trace of Precipitation, MM = Missing Value Source: NWS Daily Summary

Daily Weather History Graph

Daily Weather History Graph

Search for Another Location

Airport:

Trip Planner

Search our weather history database for the weather conditions in past years. The results will help you decide how hot, cold, wet, or windy it might be!

Date:

Astronomy

Nov. 16, 2011 Rise Set
Actual Time 7:41 AM CST 5:10 PM CST
Civil Twilight 7:09 AM CST 5:42 PM CST
Nautical Twilight 6:33 AM CST 6:18 PM CST
Astronomical Twilight 5:58 AM CST 6:53 PM CST
Moon 10:28 PM CST (11/16) 12:17 PM CST (11/16)
Length of Visible Light 10h 32m
Length of Day
9h 28m
Waning Gibbous, 70% of the Moon is Illuminated
Nov 16
Waning Gibbous
Nov 18
Last Quarter
Nov 25
New
Dec 2
First Quarter
Dec 10
Full

Hourly Weather History & Observations

Time (CST) Temp. Windchill Dew Point Humidity Pressure Visibility Wind Dir Wind Speed Gust Speed Precip Events Conditions
12:52 AM 19.0 °F 9.0 °F 12.9 °F 77% 30.06 in 10.0 mi NW 8.1 mph - N/A   Clear
1:52 AM 19.0 °F 8.2 °F 12.9 °F 77% 30.07 in 10.0 mi WNW 9.2 mph - N/A   Clear
2:52 AM 19.9 °F 8.6 °F 12.0 °F 71% 30.08 in 10.0 mi West 10.4 mph - N/A   Clear
3:52 AM 19.9 °F 7.9 °F 10.9 °F 68% 30.09 in 10.0 mi WNW 11.5 mph - N/A   Clear
4:52 AM 19.9 °F 7.3 °F 10.0 °F 65% 30.10 in 10.0 mi NW 12.7 mph - N/A   Clear
5:52 AM 18.0 °F 7.7 °F 10.0 °F 71% 30.13 in 10.0 mi NW 8.1 mph - N/A   Clear
6:52 AM 18.0 °F 6.1 °F 10.0 °F 71% 30.15 in 10.0 mi WNW 10.4 mph - N/A   Clear
7:52 AM 17.1 °F 5.8 °F 10.0 °F 74% 30.19 in 10.0 mi West 9.2 mph - N/A   Clear
8:52 AM 21.0 °F 7.1 °F 12.0 °F 68% 30.21 in 10.0 mi WNW 16.1 mph - N/A   Clear
9:52 AM 24.1 °F 10.1 °F 12.0 °F 60% 30.23 in 10.0 mi WNW 18.4 mph 25.3 mph N/A   Clear
10:52 AM 27.0 °F 12.5 °F 10.0 °F 49% 30.23 in 10.0 mi WNW 23.0 mph 28.8 mph N/A   Clear
11:52 AM 28.9 °F 15.8 °F 9.0 °F 43% 30.23 in 10.0 mi WNW 20.7 mph 28.8 mph N/A   Partly Cloudy
12:52 PM 30.9 °F 17.8 °F 8.1 °F 38% 30.22 in 10.0 mi WNW 23.0 mph 31.1 mph N/A   Clear
1:52 PM 32.0 °F 18.4 °F 7.0 °F 35% 30.20 in 10.0 mi WNW 26.5 mph 32.2 mph N/A   Clear
2:52 PM 33.1 °F 21.5 °F 8.1 °F 35% 30.20 in 10.0 mi NW 19.6 mph 31.1 mph N/A   Clear
3:52 PM 33.1 °F 23.0 °F 10.0 °F 38% 30.20 in 10.0 mi NW 15.0 mph 28.8 mph N/A   Clear
4:52 PM 30.9 °F 22.2 °F 10.0 °F 42% 30.22 in 10.0 mi NNW 10.4 mph - N/A   Clear
5:52 PM 24.1 °F 16.0 °F 9.0 °F 53% 30.23 in 10.0 mi North 6.9 mph - N/A   Partly Cloudy
6:52 PM 17.1 °F - 8.1 °F 68% 30.25 in 10.0 mi Calm Calm - N/A   Mostly Cloudy
7:52 PM 16.0 °F 8.8 °F 8.1 °F 71% 30.25 in 10.0 mi North 4.6 mph - N/A   Clear
8:52 PM 12.0 °F - 6.1 °F 77% 30.25 in 10.0 mi Calm Calm - N/A   Scattered Clouds
9:52 PM 14.0 °F - 9.0 °F 80% 30.24 in 10.0 mi Calm Calm - N/A   Partly Cloudy
10:52 PM 16.0 °F 10.4 °F 12.9 °F 88% 30.23 in 10.0 mi NNW 3.5 mph - N/A   Clear
11:52 PM 12.0 °F - 10.0 °F 92% 30.23 in 10.0 mi Calm Calm - N/A   Clear